Tracking 28570 objects as of 5-Mar-2024
HD Live streaming from Space Station
objects crossing your sky now

ORBCOMM FM 107

Track ORBCOMM FM 107 now!
10-day predictions
ORBCOMM FM 107 is classified as:


NORAD ID: 40087
Int'l Code: 2014-040B
Perigee: 710.5 km
Apogee: 713.8 km
Inclination: 47.0 °
Period: 98.9 minutes
Semi major axis: 7083 km
RCS: Unknown
Launch date: July 14, 2014
Source: United States (US)
Launch site: AIR FORCE EASTERN TEST RANGE (AFETR)
Your satellite tracking list
Your tracking list is empty




NASA's NSSDC Master Catalog

Two Line Element Set (TLE):
1 40087U 14040B   24064.72525700  .00001022  00000-0  26582-3 0  9993
2 40087  47.0055  71.3965 0002339 283.1343  76.9281 14.56346724512669
Source of the keplerian elements: AFSPC